Regional Weather Roundup
Issued by NWS

Home | Current Version | Previous Version | Text Only | Print | Product List | Glossary Off
Versions: 1 2 3 4 5 6 7 8 9 10 11 12 13 14 15 16 17 18 19 20 21 22 23 24 25 26 27 28 29 30 31 32 33 34 35 36 37 38 39 40 41 42 43 44 45 46 47 48 49 50

000
ASUS43 KOAX 041502
RWRNE

WEATHER ROUNDUP FOR NEBRASKA
NATIONAL WEATHER SERVICE OMAHA NE
1000 AM CDT SAT JUL 04 2015

NOTES: SATELLITE DATA IS BEING USED TO AUGMENT CLOUD COVER ABOVE
       12000 FEET.
       "FAIR" INDICATES FEW OR NO CLOUDS BELOW 12,000 FEET WITH NO
       SIGNIFICANT WEATHER AND/OR OBSTRUCTIONS TO VISIBILITY.

  * THESE STATIONS DO NOT REPORT WEATHER SUCH AS RAIN...SNOW OR FOG.

NEZ001>004-019>022-054>056-041600-
NEBRASKA PANHANDLE

CITY           SKY/WX    TMP DP  RH WIND       PRES   REMARKS
SCOTTSBLUFF    SUNNY     73  61  65 VRB6      29.94F
ALLIANCE       SUNNY     74  64  71 S10       29.94F
CHADRON        SUNNY     77  63  61 S9        29.89F
KIMBALL          N/A    N/A N/A N/A MISG        N/A
SIDNEY         MOSUNNY   76  61  59 S13       29.98S
$$

NEZ057>060-069>072-079>082-041600-
SOUTHWEST NEBRASKA

CITY           SKY/WX    TMP DP  RH WIND       PRES   REMARKS
NORTH PLATTE   SUNNY     76  61  59 S10       29.97S
IMPERIAL       PTSUNNY   75  61  61 S14       29.96F
LEXINGTON      SUNNY     76  65  68 S12       29.98F
MCCOOK         SUNNY     77  62  59 S9        29.96F
$$

NEZ005>010-023>029-035>040-094-041600-
NORTH CENTRAL NEBRASKA

CITY           SKY/WX    TMP DP  RH WIND       PRES   REMARKS
VALENTINE      SUNNY     77  61  57 S16       29.92F
AINSWORTH      MOSUNNY   73  63  70 S12       29.94F
BROKEN BOW     MOSUNNY   73  64  73 S10       29.97F
ORD            PTSUNNY   72  62  71 S13       29.96F
$$

NEZ041-046>049-061>064-073>077-083>087-041600-
SOUTH CENTRAL NEBRASKA

CITY           SKY/WX    TMP DP  RH WIND       PRES   REMARKS
GRAND ISLAND   PTSUNNY   74  63  68 S12       29.99F
AURORA         PTSUNNY   73  64  74 S8        29.99S
HASTINGS       PTSUNNY   71  64  78 S13       30.00S
KEARNEY *      MOSUNNY   72  63  73 S12       29.99S
$$

NEZ011>018-030>034-042>045-041600-
NORTHEAST NEBRASKA

CITY           SKY/WX    TMP DP  RH WIND       PRES   REMARKS
NORFOLK        MOSUNNY   73  65  75 S8        29.98S
BLAIR          SUNNY     71  59  65 S6        30.01S
COLUMBUS *     MOSUNNY   72  59  64 S5        30.01S
FREMONT        SUNNY     73  61  64 SE7       30.01S
TEKAMAH        SUNNY     72  61  68 S3        30.00S
$$

NEZ050>053-065>068-078-088>093-041600-
SOUTHEAST NEBRASKA

CITY           SKY/WX    TMP DP  RH WIND       PRES   REMARKS
LINCOLN        SUNNY     73  61  65 S8        30.01S
OMAHA EPPLEY   SUNNY     72  59  63 S6        30.01S
FALLS CITY     SUNNY     72  61  68 SE7       30.02S
PLATTSMOUTH    SUNNY     71  60  66 S5        30.02R
$$

NEZ044-045-051>053-067-041600-
OMAHA AREA

CITY           SKY/WX    TMP DP  RH WIND       PRES   REMARKS
OMAHA EPPLEY   SUNNY     72  59  63 S6        30.01S
BLAIR          SUNNY     71  59  65 S6        30.01S
FREMONT        SUNNY     73  61  64 SE7       30.01S
MILLARD        SUNNY     73  59  61 SE5       30.01S
OFFUTT AFB     SUNNY     68  68 100 SE5       30.00S
PLATTSMOUTH    SUNNY     71  60  66 S5        30.02R
$$



USA.gov is the U.S. government's official web portal to all federal, state and local government web resources and services.